This is the latest recevied weather packets stored in our database for station/object KJ5FA-10. If no packets are shown the sender has not sent any weather packets the latest 10 day(s).
| Time | Temp. | Humidity | Pressure | Rain* | Wind** | Luminosity | Snow |
|---|---|---|---|---|---|---|---|
| 1777508673 | 17.78° C | 81% | 1015.1 hPa | 0 mm | - | - | - |
| 1777507775 | 18.33° C | 79% | 1015.3 hPa | 0 mm | - | - | - |
| 1777506874 | 18.89° C | 76% | 1014.8 hPa | 0 mm | - | - | - |
| 1777505974 | 18.89° C | 75% | 1014.8 hPa | 0 mm | - | - | - |
| 1777505074 | 18.89° C | 75% | 1014.8 hPa | 0 mm | - | - | - |
| 1777504174 | 18.89° C | 74% | 1014.5 hPa | 0 mm | - | - | - |
| 1777503275 | 18.89° C | 73% | 1014.8 hPa | 0 mm | - | - | - |
| 1777502374 | 18.89° C | 72% | 1014.1 hPa | 0 mm | - | - | - |
| 1777501474 | 18.89° C | 72% | 1014 hPa | 0 mm | - | - | - |
| 1777500574 | 18.89° C | 72% | 1013.9 hPa | 0 mm | - | - | - |
| 1777499674 | 18.89° C | 72% | 1014.2 hPa | 0 mm | - | - | - |
| 1777497874 | 19.44° C | 70% | 1014.7 hPa | 0 mm | - | - | - |
| 1777496974 | 18.89° C | 71% | 1015.1 hPa | 0 mm | - | - | - |
| 1777495174 | 18.89° C | 68% | 1015.2 hPa | 0 mm | - | - | - |
| 1777494274 | 18.89° C | 68% | 1015.4 hPa | 0 mm | - | - | - |
| 1777493374 | 19.44° C | 72% | 1015.6 hPa | 0 mm | - | - | - |
| 1777492474 | 19.44° C | 69% | 1015.7 hPa | 0 mm | - | - | - |
| 1777491574 | 19.44° C | 69% | 1016.3 hPa | 0 mm | - | - | - |
| 1777489774 | 19.44° C | 69% | 1016.4 hPa | 0 mm | - | - | - |
| 1777488875 | 19.44° C | 70% | 1016.8 hPa | 0 mm | - | - | - |
| 1777487974 | 19.44° C | 69% | 1017.2 hPa | 0 mm | - | - | - |
| 1777487074 | 19.44° C | 68% | 1016.9 hPa | 0 mm | - | - | - |
| 1777486174 | 20° C | 68% | 1016.2 hPa | 0 mm | - | - | - |
| 1777485275 | 19.44° C | 69% | 1016.8 hPa | 0 mm | - | - | - |
| 1777484374 | 19.44° C | 70% | 1017 hPa | 0 mm | - | - | - |
* Rain latest hour (hover to see other rain measurements)
** Current wind speed in m/s (hover to see current wind gust speed)